Location: Shepherdstown, WV
(39.4326°N, 77.8042°W)
Time: 05:52:27
(UTC-04:00)

Vanguard 3 - Pass Details

Date: 11 August 2021
Orbit: 510 x 3260 km, 33.3° (Epoch: 21 September)

Event Time Altitude Azimuth Distance (km) Brightness Sun altitude
Rises 18:53:01 0° 268° (W) 4,728 12.9 13.9°
Reaches altitude 10° 18:55:38 10° 265° (W) 4,040 12.8 13.4°
Maximum altitude 19:07:12 66° 187° (S) 2,660 9.9 11.2°
Drops below altitude 10° 19:25:41 10° 111° (ESE) 6,127 11.0 7.7°
Sets 19:30:45 0° 109° (ESE) 7,220 11.3 6.7°
